Time,TemperatureF,DewpointF,PressureIn,WindDirection,WindDirectionDegrees,WindSpeedMPH,WindSpeedGustMPH,Humidity,HourlyPrecipIn,Conditions,Clouds,dailyrainin,SoftwareType,DateUTC
2017-05-01 00:04:00,70.0,62.8,29.74,SSE,157,7.0,12.0,78,0.00,,---,0.02,VWS V14.01,2017-05-01 04:04:00,
2017-05-01 00:09:00,70.0,62.8,29.74,SSE,157,6.0,12.0,78,0.00,,---,0.02,VWS V14.01,2017-05-01 04:09:00,
2017-05-01 00:14:00,70.0,62.8,29.73,SSE,157,6.0,12.0,78,0.00,,---,0.02,VWS V14.01,2017-05-01 04:14:00,
2017-05-01 00:19:00,70.0,62.8,29.73,SSE,157,6.0,9.0,78,0.00,,---,0.02,VWS V14.01,2017-05-01 04:19:00,
2017-05-01 00:24:00,70.0,62.5,29.73,SSE,157,6.0,13.0,77,0.00,,---,0.02,VWS V14.01,2017-05-01 04:24:00,
2017-05-01 00:30:00,70.0,62.5,29.73,South,180,7.0,10.0,77,0.00,,---,0.02,VWS V14.01,2017-05-01 04:30:00,
2017-05-01 00:35:00,70.0,62.5,29.73,SSE,157,6.0,13.0,77,0.00,,---,0.02,VWS V14.01,2017-05-01 04:35:00,
2017-05-01 00:40:00,70.0,62.5,29.73,SSE,157,4.0,12.0,77,0.00,,---,0.02,VWS V14.01,2017-05-01 04:40:00,
2017-05-01 00:45:00,70.0,62.1,29.72,South,180,8.0,13.0,76,0.00,,---,0.02,VWS V14.01,2017-05-01 04:45:00,
2017-05-01 00:50:00,70.0,62.1,29.72,SSE,157,8.0,16.0,76,0.00,,---,0.02,VWS V14.01,2017-05-01 04:50:00,
2017-05-01 00:55:00,70.0,62.1,29.72,SSE,157,6.0,14.0,76,0.00,,---,0.02,VWS V14.01,2017-05-01 04:55:00,
2017-05-01 01:00:00,70.0,61.7,29.72,SSE,157,6.0,13.0,75,0.00,,---,0.00,VWS V14.01,2017-05-01 05:00:00,
2017-05-01 01:06:00,71.0,62.3,29.72,South,180,7.0,17.0,74,0.00,,---,0.00,VWS V14.01,2017-05-01 05:06:00,
2017-05-01 01:11:00,71.0,62.3,29.72,SE,135,7.0,13.0,74,0.00,,---,0.00,VWS V14.01,2017-05-01 05:11:00,
2017-05-01 01:16:00,71.0,62.3,29.73,ESE,112,7.0,16.0,74,0.00,,---,0.00,VWS V14.01,2017-05-01 05:16:00,
2017-05-01 01:21:00,71.0,62.3,29.73,SSE,157,9.0,15.0,74,0.00,,---,0.00,VWS V14.01,2017-05-01 05:21:00,
2017-05-01 01:26:00,71.0,62.3,29.74,South,180,6.0,14.0,74,0.00,,---,0.00,VWS V14.01,2017-05-01 05:26:00,
2017-05-01 01:31:00,70.0,61.7,29.74,SSW,202,7.0,14.0,75,0.00,,---,0.00,VWS V14.01,2017-05-01 05:31:00,
2017-05-01 01:36:00,70.0,61.7,29.73,SSE,157,9.0,12.0,75,0.00,,---,0.00,VWS V14.01,2017-05-01 05:36:00,
2017-05-01 01:41:00,70.0,62.1,29.73,South,180,9.0,15.0,76,0.00,,---,0.00,VWS V14.01,2017-05-01 05:41:00,
2017-05-01 01:47:00,70.0,62.1,29.73,SE,135,6.0,14.0,76,0.00,,---,0.00,VWS V14.01,2017-05-01 05:47:00,
2017-05-01 01:52:00,70.0,62.1,29.73,SSE,157,9.0,16.0,76,0.00,,---,0.00,VWS V14.01,2017-05-01 05:52:00,
2017-05-01 01:57:00,70.0,62.1,29.72,South,180,10.0,13.0,76,0.00,,---,0.00,VWS V14.01,2017-05-01 05:57:00,
2017-05-01 02:02:00,70.0,62.1,29.72,South,180,7.0,17.0,76,0.00,,---,0.00,VWS V14.01,2017-05-01 06:02:00,
2017-05-01 02:07:00,70.0,62.1,29.72,South,180,10.0,16.0,76,0.00,,---,0.00,VWS V14.01,2017-05-01 06:07:00,
2017-05-01 02:12:00,70.0,62.1,29.72,SE,135,7.0,13.0,76,0.00,,---,0.00,VWS V14.01,2017-05-01 06:12:00,
2017-05-01 02:17:00,70.0,62.5,29.72,SE,135,5.0,13.0,77,0.00,,---,0.00,VWS V14.01,2017-05-01 06:17:00,
2017-05-01 02:22:00,70.0,62.5,29.72,South,180,4.0,13.0,77,0.00,,---,0.00,VWS V14.01,2017-05-01 06:22:00,
2017-05-01 02:27:00,70.0,62.5,29.71,SSE,157,5.0,12.0,77,0.00,,---,0.00,VWS V14.01,2017-05-01 06:27:00,
2017-05-01 02:32:00,70.0,62.5,29.71,SSW,202,6.0,19.0,77,0.00,,---,0.00,VWS V14.01,2017-05-01 06:32:00,
2017-05-01 02:37:00,70.0,62.8,29.71,South,180,7.0,15.0,78,0.00,,---,0.00,VWS V14.01,2017-05-01 06:37:00,
2017-05-01 02:42:00,69.0,61.9,29.71,SSE,157,6.0,13.0,78,0.00,,---,0.00,VWS V14.01,2017-05-01 06:42:00,
2017-05-01 02:47:00,69.0,61.9,29.70,SSE,157,13.0,16.0,78,0.00,,---,0.00,VWS V14.01,2017-05-01 06:47:00,
2017-05-01 02:52:00,69.0,62.6,29.70,SSE,157,4.0,13.0,80,0.00,,---,0.00,VWS V14.01,2017-05-01 06:52:00,
2017-05-01 02:57:00,68.0,62.7,29.70,South,180,7.0,12.0,83,0.00,,---,0.00,VWS V14.01,2017-05-01 06:57:00,
2017-05-01 03:02:00,68.0,63.0,29.70,South,180,5.0,14.0,84,0.00,,---,0.00,VWS V14.01,2017-05-01 07:02:00,
2017-05-01 03:07:00,68.0,63.0,29.70,SSE,157,5.0,14.0,84,0.00,,---,0.00,VWS V14.01,2017-05-01 07:07:00,
2017-05-01 03:12:00,68.0,63.0,29.70,South,180,7.0,18.0,84,0.00,,---,0.00,VWS V14.01,2017-05-01 07:12:00,